EHI
0 1 4 3 1 1 0 1 2 4 6 7 7 7 7 6 5 5 4 3 2 1 0 0 0 0 0 0 0 1 1 0 1 1 1 1 1 3 4 4 3 4 5
0 1 2 2 1 1 1 1 1 3 5 7 7 7 7 5 3 3 3 2 1 1 0 0 0 0 0 0 1 2 1 0 0 0 0 0 1 3 4 4 3 4 5
0 0 0 1 1 1 2 1 1 2 3 4 5 5 5 4 2 2 1 1 1 0 0 0 0 0 0 0 1 1 1 0 0 0 0 0 1 3 4 4 3 3 4
0 0 0 0 0 1 2 1 1 1 2 2 3 3 2 2 2 2 2 1 0 0 0 0 0 0 0 1 1 0 0 0 0 0 0 0 1 2 4 4 4 3 3
0 0 0 0 0 1 2 1 0 1 1 1 2 1 1 2 1 1 1 1 0 0 0 0 0 0 0 0 0 1 1 1 1 1 0 0 0 1 3 4 4 3 2
0 0 0 0 1 2 2 2 0 0 0 1 1 1 1 1 1 0 0 0 0 0 0 0 0 0 0 0 0 2 3 2 1 1 0 0 0 2 4 6 5 4 2
0 0 1 2 3 4 4 2 1 1 1 2 2 1 0 0 0 0 0 0 0 0 0 0 0 0 0 0 0 2 4 3 2 1 0 0 0 3 6 7 6 4 2
0 0 1 3 5 6 5 3 2 2 3 3 3 2 2 2 1 1 1 1 2 2 2 1 0 0 0 0 1 3 5 4 2 1 0 0 0 3 6 8 8 6 5
0 0 0 3 6 7 5 4 3 3 3 3 3 3 4 4 4 3 2 3 5 5 4 3 2 2 2 3 4 6 7 6 2 0 0 0 1 3 7 9 9 8 7
0 0 0 2 4 4 4 3 3 3 3 3 3 4 4 5 5 4 3 5 6 5 5 5 5 4 5 6 7 9 9 7 3 0 0 1 3 5 7 9 10 9 8
0 0 0 1 1 1 1 2 2 3 3 3 3 3 4 3 4 3 4 5 6 5 5 7 8 7 6 6 7 7 6 4 2 0 1 3 6 7 8 11 13 12 10
0 0 0 0 0 0 0 0 1 2 2 2 2 2 2 2 2 3 4 5 5 5 5 7 8 7 5 3 2 2 2 1 0 1 2 4 7 9 10 12 14 14 13
1 0 0 0 0 0 0 0 1 1 1 1 1 1 1 1 1 2 2 2 2 2 3 3 4 4 2 1 0 0 0 0 0 1 3 6 10 11 11 11 12 12 13
2 1 0 0 0 0 0 0 0 0 0 0 0 1 1 1 0 0 0 1 1 1 1 1 1 2 2 1 1 0 0 0 1 2 3 8 14 14 12 10 9 9 10
3 2 1 0 0 0 0 0 0 0 0 1 1 2 2 2 2 1 1 2 2 2 2 2 2 2 1 1 1 1 1 2 4 3 4 10 16 16 13 11 10 10 12
3 2 1 0 0 0 0 0 0 1 1 1 2 3 3 4 4 3 3 3 3 2 1 1 1 1 0 1 2 2 2 3 5 5 5 8 13 16 16 16 17 17 17
3 3 1 0 0 0 0 0 0 0 0 1 2 3 4 5 5 4 3 3 2 1 0 0 0 0 0 1 2 3 3 4 6 6 6 7 9 13 16 20 23 23 21
5 4 2 1 0 0 0 0 0 0 0 0 1 2 4 6 7 5 3 1 1 0 0 0 0 0 1 1 3 3 3 4 6 7 7 7 7 8 11 18 24 26 25
6 5 3 1 0 0 0 0 0 0 0 0 0 1 3 6 7 6 3 1 0 0 0 0 0 1 2 3 3 3 3 3 5 7 7 7 6 6 7 12 18 23 24
7 6 4 2 1 1 2 1 0 0 0 0 0 1 2 4 6 6 4 2 1 1 0 0 1 1 2 2 2 2 1 2 3 5 5 5 5 5 5 7 11 14 17
11 8 6 4 3 3 3 2 1 0 0 0 0 0 1 3 4 6 5 4 3 2 1 0 0 0 1 1 1 1 0 1 3 3 3 3 3 4 5 6 7 8 8
13 11 8 6 5 3 3 2 1 0 0 0 0 0 1 2 3 4 5 4 3 2 1 0 0 0 0 1 1 1 1 2 3 3 2 2 2 3 5 8 9 7 6
15 13 11 9 7 5 4 3 1 1 1 0 0 0 1 3 4 4 4 3 2 1 1 1 0 0 1 2 2 2 3 3 2 2 2 1 2 2 5 9 10 9 7
19 16 13 12 10 8 5 4 3 3 2 1 0 0 1 3 4 4 3 3 2 2 1 1 1 1 2 3 3 3 3 2 2 2 1 1 1 2 4 7 9 8 7
21 19 16 13 11 9 7 6 6 5 3 1 0 0 1 3 4 4 3 3 3 2 3 3 3 3 3 3 3 2 1 1 1 1 0 0 0 1 3 5 5 4 4
21 20 17 14 11 9 7 6 6 6 3 1 0 1 2 3 4 4 3 3 3 2 3 6 6 4 3 3 2 1 0 0 0 0 0 0 0 0 2 3 3 2 2
Wind_Speed
2 3 6 6 5 5 5 6 6 6 6 6 7 7 8 9 9 9 9 9 9 9 9 9 9 9 9 9 9 9 10 10 10 9 9 9 9 9 8 9 8 6 9
5 4 6 6 6 6 5 6 6 6 6 7 7 8 8 9 9 9 9 9 9 8 8 8 8 8 8 8 8 8 8 9 8 8 9 8 8 7 8 9 8 5 9
5 4 5 6 6 7 6 6 6 6 6 6 7 8 9 9 9 9 9 8 8 8 7 7 7 7 7 7 8 7 7 7 7 7 6 4 5 7 8 8 9 9 9
6 3 4 7 7 7 6 6 6 6 6 6 7 8 9 9 8 8 8 8 7 7 7 7 7 7 6 7 7 6 6 6 6 6 3 2 4 7 8 8 9 8 9
5 3 4 7 7 7 6 6 6 5 6 7 8 8 9 8 8 8 8 8 7 7 6 7 6 6 6 6 6 6 6 6 6 4 2 1 2 7 9 8 9 9 9
5 4 4 8 7 7 6 6 5 5 6 7 9 8 8 8 8 8 7 7 7 6 6 6 6 6 6 5 6 6 6 7 5 3 2 1 2 6 8 9 8 8 8
5 4 4 8 7 7 6 5 5 5 6 8 8 8 8 7 7 7 7 6 6 6 6 5 5 5 5 5 5 6 6 7 4 3 2 2 2 6 8 8 8 7 7
6 4 4 7 6 6 6 5 5 6 6 7 8 8 7 7 7 6 6 6 7 6 6 5 4 4 4 4 5 6 6 6 5 4 2 2 4 6 7 8 8 8 8
6 4 2 3 4 5 5 6 6 7 7 7 7 7 7 6 6 6 6 6 7 7 7 6 5 3 3 4 5 6 6 7 4 3 3 2 5 7 8 9 9 8 7
5 4 3 3 3 2 3 5 6 7 7 7 7 6 5 5 5 5 4 5 6 7 6 5 5 4 3 4 5 5 6 5 3 3 2 4 7 7 8 8 8 8 7
4 3 3 3 3 3 2 4 4 4 5 5 4 5 3 1 1 2 3 5 6 6 5 4 3 3 3 3 4 4 3 2 3 3 2 6 8 8 8 8 8 8 7
4 3 3 3 3 3 3 2 1 2 2 2 2 2 2 1 1 2 2 4 4 4 3 3 3 2 1 1 2 2 1 3 3 3 4 9 9 9 8 8 8 8 7
4 4 3 3 3 3 2 2 1 1 2 2 2 2 2 2 1 1 1 1 1 1 1 1 0 0 1 1 1 1 1 2 2 2 4 9 9 9 9 9 9 8 8
4 4 3 3 3 2 2 2 2 1 1 1 1 2 2 1 2 1 1 1 1 1 1 0 1 1 0 0 1 1 2 1 2 2 3 8 8 8 8 9 9 8 8
5 4 3 4 3 2 2 2 2 1 1 1 1 1 2 2 2 1 1 1 1 1 1 1 1 1 0 0 1 2 2 2 3 2 2 7 8 8 8 8 8 8 8
5 4 3 4 3 3 3 2 2 1 1 2 1 2 2 2 2 2 2 1 1 0 1 1 1 1 0 0 0 1 2 2 3 3 3 4 7 7 8 8 8 8 8
5 4 4 4 3 3 3 2 2 1 2 2 1 2 2 2 2 2 2 1 0 0 1 1 1 1 1 1 1 0 1 2 2 3 3 2 3 6 8 8 8 7 7
5 4 4 4 4 3 2 2 2 2 2 1 1 1 2 2 2 2 2 1 0 1 1 1 1 1 1 1 0 1 1 1 2 2 2 2 2 2 4 7 8 8 7
5 5 4 4 3 3 2 1 1 1 1 1 1 1 1 2 2 2 2 1 1 1 1 1 1 1 1 0 1 1 1 1 1 2 2 3 3 2 2 4 6 7 7
5 5 4 3 3 2 2 2 1 2 1 1 1 1 1 1 1 2 1 1 1 2 1 1 1 1 0 1 1 1 1 0 1 1 2 2 2 3 3 3 2 3 5
5 5 4 4 2 2 1 1 1 0 0 0 0 1 1 1 1 2 1 1 1 1 1 1 1 1 1 1 2 2 3 1 0 0 1 1 2 3 3 3 2 2 2
6 5 4 4 3 2 1 1 1 1 1 1 0 1 0 1 1 2 2 1 1 1 1 1 1 1 1 1 1 1 2 4 2 1 0 1 1 1 2 3 3 3 2
6 6 5 4 3 2 2 1 1 2 2 2 1 1 1 0 1 1 1 2 1 1 1 1 1 1 0 1 1 2 1 1 2 2 1 1 1 1 1 2 3 3 3
7 6 5 4 3 3 3 3 3 2 1 1 0 0 1 1 1 1 1 1 1 1 1 1 1 1 1 1 1 0 2 3 1 2 3 2 1 1 2 2 2 3 3
7 7 5 4 3 3 3 3 3 2 1 0 1 1 2 1 1 1 1 1 1 1 1 0 0 0 1 1 1 1 0 0 1 2 2 3 2 2 2 2 2 2 3
6 6 5 5 3 3 4 3 3 3 2 1 1 1 1 1 1 2 1 1 0 0 0 0 0 0 0 0 0 0 1 1 1 1 2 2 2 2 2 1 1 2 2
Wind_Direction
181 181 152 132 124 123 121 123 121 119 119 117 116 118 120 121 121 126 131 132 131 132 132 132 135 138 138 144 150 151 151 149 154 154 156 156 153 151 152 153 151 151 148
167 170 148 132 126 124 125 123 119 118 118 119 121 120 123 123 121 122 126 131 132 132 131 129 131 137 145 150 153 153 153 156 155 158 157 158 158 158 161 161 158 157 157
149 158 144 132 125 118 119 121 121 122 123 124 126 125 125 127 126 125 126 128 131 134 135 134 132 136 145 155 155 154 157 162 162 156 153 154 158 165 165 161 158 155 159
146 148 137 130 127 118 115 116 122 124 125 126 130 132 132 132 132 130 132 133 134 135 137 139 141 142 143 153 154 151 148 152 149 145 136 155 176 168 163 158 157 153 153
134 137 136 127 126 121 117 119 121 126 130 131 133 136 136 136 135 135 137 139 139 140 145 146 148 150 148 151 154 153 149 142 140 129 110 139 168 163 162 158 158 158 156
135 136 137 128 127 123 119 122 121 126 137 139 137 139 141 142 142 140 142 144 146 149 150 148 150 157 156 156 157 157 151 146 137 119 114 108 119 151 161 161 161 164 167
135 139 142 133 130 126 127 124 117 123 130 138 138 140 144 146 149 150 151 152 154 154 151 152 155 163 169 166 162 161 154 147 138 135 142 141 154 165 165 163 165 168 170
138 140 137 135 130 128 130 124 116 117 123 133 138 139 143 151 157 160 159 161 161 157 155 160 164 173 180 176 168 164 157 151 142 137 140 160 179 180 173 168 169 174 174
121 125 125 132 130 132 133 125 112 104 121 129 134 139 141 149 157 160 164 169 168 164 164 168 176 186 192 184 177 170 161 156 145 145 171 175 186 185 179 177 173 175 176
107 111 113 108 106 109 124 124 112 105 111 123 133 134 136 143 153 158 165 165 165 167 169 174 182 198 197 192 183 173 165 158 148 161 179 188 189 187 184 183 179 178 181
102 93 98 107 108 109 113 113 106 107 102 111 124 129 115 92 119 143 147 150 156 163 172 182 192 201 198 193 187 181 167 153 155 169 182 190 187 187 186 187 183 186 191
116 120 108 108 109 114 120 99 87 84 71 81 85 84 72 66 86 125 143 147 153 158 167 174 190 199 171 152 188 192 156 161 165 178 186 190 191 187 186 187 189 195 200
130 122 113 112 106 108 106 111 92 76 77 73 72 76 69 60 62 60 64 107 108 118 112 127 147 64 101 130 149 159 171 177 174 185 188 189 190 190 191 192 195 201 205
114 112 110 106 95 93 96 103 105 95 93 95 90 91 88 74 64 65 70 78 84 73 75 83 98 70 54 77 150 160 176 176 170 175 191 191 190 193 197 198 201 204 207
110 108 107 109 101 91 87 86 95 87 89 101 91 89 104 102 84 80 89 82 81 88 106 129 121 118 104 153 170 158 170 178 168 168 185 192 194 196 200 201 203 204 202
130 132 125 114 117 102 95 90 90 97 91 86 87 96 108 108 104 102 92 87 82 108 135 127 123 135 163 119 98 146 170 178 175 176 184 195 201 202 207 205 206 204 203
143 140 136 128 115 103 102 103 100 98 96 98 93 89 102 113 108 108 103 101 80 73 92 85 88 102 93 78 35 305 206 198 178 178 183 191 197 208 211 210 209 209 211
135 133 137 124 112 109 107 96 94 95 90 93 88 89 104 110 114 108 99 97 91 76 83 95 88 80 68 65 315 270 228 203 192 188 176 178 194 213 216 215 214 211 212
140 133 126 119 121 122 121 105 94 101 96 106 98 86 99 108 113 115 109 108 87 79 75 102 80 89 85 24 261 269 270 220 204 197 181 187 195 199 200 210 213 212 217
138 131 128 120 122 116 99 85 61 55 56 72 105 101 100 111 119 116 110 80 76 80 55 54 86 79 154 211 301 351 327 285 191 195 205 203 198 197 190 196 208 215 220
140 136 137 133 136 120 113 116 110 124 19 17 151 134 136 136 136 124 120 91 84 90 87 52 72 50 11 39 46 5 353 359 29 257 211 203 206 198 182 189 190 202 227
154 155 155 158 161 157 152 153 154 160 179 174 5 43 121 138 158 146 133 128 124 104 56 51 76 52 349 56 102 55 357 349 346 332 307 207 227 194 191 195 189 195 209
161 165 165 170 162 166 161 118 91 62 39 34 14 358 355 148 157 120 136 135 136 132 140 164 137 129 252 304 144 139 141 251 306 319 307 290 268 234 234 199 188 196 204
172 168 164 166 162 162 148 134 132 129 142 217 241 335 3 46 88 96 107 121 130 131 162 222 166 162 148 282 311 233 182 177 172 304 318 306 267 238 240 227 211 207 211
170 169 168 162 164 161 151 147 138 132 148 142 57 41 27 18 25 48 91 98 118 152 184 215 118 118 152 188 236 271 300 60 136 160 280 308 316 282 244 235 222 212 216
168 168 166 161 173 171 163 153 145 149 148 118 87 78 45 14 358 352 31 36 94 156 169 191 181 156 188 218 241 192 174 179 215 173 222 270 286 288 283 262 230 227 221